Location: Cahas Mountain Overlook
(37.0833°N, 80.1000°W)
Time: 10:03:56
(UTC-05:00)

S-56A Canister/Altair - Pass Details

Date: 07 December 2023
Orbit: 640 x 2488 km, 38.9° (Epoch: 25 February)

Event Time Altitude Azimuth Distance (km) Brightness Sun altitude
Rises 11:14:16 0° 245° (WSW) 3,496 11.0 28.8°
Reaches altitude 10° 11:17:06 10° 243° (WSW) 2,362 10.3 28.9°
Maximum altitude 11:22:17 68° 161° (SSE) 726 8.4 29.2°
Drops below altitude 10° 11:26:43 10° 78° (ENE) 2,022 9.8 29.3°
Sets 11:28:58 0° 76° (ENE) 2,946 10.5 29.4°
